Location: Forst
(46.9333°N, 15.4333°E)
Time: 14:44:17
(UTC+00:00)

NOAA 12 - Pass Details

Date: 01 December 2020
Orbit: 795 x 815 km, 98.5° (Epoch: 27 January)

Event Time Altitude Azimuth Distance (km) Brightness Sun altitude
Rises 16:11:10 0° 161° (SSE) 3,328 7.3 -10.0°
Reaches altitude 10° 16:13:29 10° 160° (SSE) 2,400 6.6 -10.3°
Maximum altitude 16:18:48 81° 74° (ENE) 829 4.1 -11.2°
Drops below altitude 10° 16:24:09 10° 348° (NNW) 2,409 6.5 -12.0°
Sets 16:26:30 0° 347° (NNW) 3,342 7.2 -12.4°
